Weather in Krutoye

Russia / Oryol Oblast     52°11′17″N   36°52′07″E
temp.,
°C
wind,
m/s
gust,
m/s
humid.,
%
clouds,
%
prec.,
mm/h
press.,
hPa
HPBL,
m
14 may, fri
fri1400:00+9ese33879 0.0 101523
03:00+10ese359485 0.0 101684
06:00+11e379442 0.0 1015157
09:00+17ese5882100 0.5 1013483
12:00+19ese6117775 0.0 10121032
15:00+22sse8137130 1.8 10101339
18:00+20s71372100 0.0 1010991
21:00+15sse41493100 0.6 1010311
15 may, sat
sat1500:00+14s369695 4.9 1010122
03:00+13ssw229341 5.0 101024
06:00+13ssw3589100 0.0 1010104
09:00+17ssw477899 0.0 1011434
12:00+20ssw676094 0.0 10111291
15:00+21ssw710565 0.0 10112130
18:00+18sw5972100 0.6 1012682
21:00+14ssw359011 0.7 101377
16 may, sun
sun1600:00+12ssw33915 0.0 101347
03:00+13sw2385100 0.0 101354
06:00+14sw238691 0.0 101451
09:00+18s227122 0.0 1014443
12:00+21ssw34590 0.1 10141324
15:00+23ssw3549100 0.2 10132134
18:00+23wsw1160100 0.0 1012238
21:00+17nne336898 0.0 101327
17 may, mon
mon1700:00+17ne377492 0.0 1012146
03:00+14ene489433 0.0 1011129
06:00+15ene410906 0.0 1010220
09:00+20ese6106977 0.0 1009420
12:00+24se71152100 0.0 1008981
15:00+25se81457100 0.0 10071687
18:00+23se71365100 0.0 1006596
21:00+18se378598 0.0 1007116
18 may, tue
tue1800:00+16sse358811 0.0 100784
03:00+15s119599 1.3 100811
06:00+16sw119677 2.1 100868
09:00+17s3595100 7.5 1008460
12:00+17wnw239386 6.1 1009385
15:00+19wsw457858 6.7 1010917
18:00+18wsw35824 0.3 1010385
21:00+15wsw33863 0.3 101230